Regional Weather Roundup
Issued by NWS

Home | Current Version | Previous Version | Graphics & Text | Print | Product List | Glossary On
Versions: 1 2 3 4 5 6 7 8 9 10 11 12 13 14 15 16 17 18 19 20 21 22 23 24 25 26 27 28 29 30 31 32 33 34 35 36 37 38 39 40 41 42 43 44 45 46 47 48 49 50
000
ASUS43 KDMX 230807
RWRIA

WEATHER ROUNDUP FOR IOWA
NATIONAL WEATHER SERVICE DES MOINES IA
300 AM CDT WED JUL 23 2014

NOTE: "FAIR" INDICATES FEW OR NO CLOUDS BELOW 12,000 FEET WITH NO
SIGNIFICANT WEATHER AND/OR OBSTRUCTIONS TO VISIBILITY.

* - THESE STATIONS ARE NOT NWS STATIONS...THUS NOT UNDER NWS
QUALITY CONTROL.  THEY ALSO DO NOT REPORT WEATHER SUCH
AS PRECIPITATION OR FOG.

IAZ001>003-012>014-020>022-031>034-043>046-230900-
   NORTHWEST IOWA

CITY           SKY/WX    TMP DP  RH WIND       PRES   REMARKS
CARROLL *      CLEAR     61  59  94 NW7       30.20R
CHEROKEE *     CLEAR     61  59  94 CALM      30.22F
DENISON *      CLEAR     63  59  88 NE6       30.19S
LE MARS *      CLEAR     64  59  82 N7        30.23S
ORANGE CITY *  CLEAR     64  55  72 NE9       30.23F
SHELDON *      CLEAR     57  55  94 N5        30.22F
SIOUX CITY     CLEAR     65  58  78 N5        30.21F
SPENCER        CLEAR     59  55  87 N7        30.22F
STORM LAKE *   CLEAR     63  59  88 N9        30.22F
$$

IAZ055>058-069>071-079>083-090>094-230900-
   SOUTHWEST IOWA

CITY           SKY/WX    TMP DP  RH WIND       PRES   REMARKS
ATLANTIC *     CLEAR     66  59  77 NE8       30.18S
AUDUBON *      CLEAR     66  61  82 N7        30.21R
CLARINDA *     CLEAR     66  66 100 N3        30.17S
COUNCIL BLFS *   N/A     66  63  88 N9        30.19R
CRESTON *      CLEAR     68  63  83 N12       30.16S
HARLAN  *      CLEAR     64  61  88 N6        30.23S
LAMONI         CLEAR     69  65  86 N9        30.14R
RED OAK *      CLEAR     64  63  94 N7        30.17S
SHENANDOAH *   CLEAR     66  64  94 NE6       30.17S
$$

IAZ047>049-059>061-072>074-084-230900-
   CENTRAL IOWA

CITY           SKY/WX    TMP DP  RH WIND       PRES   REMARKS
AMES           CLEAR     65  60  84 N9        30.16S
ANKENY *       CLEAR     68  61  77 N8        30.15R
CHARITON *     CLEAR     68  64  88 N7        30.14S
DES MOINES     CLEAR     72  60  66 N12       30.14S
GRINNELL*      CLEAR     66  63  88 N8        30.15R
KNOXVILLE *    CLEAR     72  63  73 N9        30.13R
MARSHALLTOWN   CLEAR     64  61  90 N7        30.15R
PELLA *        CLEAR     68  64  88 N3        30.14S
PERRY *          N/A     64  59  82 N6        30.17S
$$

IAZ004>006-015-016-023>025-035-036-230900-
   NORTH CENTRAL IOWA

CITY           SKY/WX    TMP DP  RH WIND       PRES   REMARKS
ALGONA *       CLEAR     61  57  88 N6        30.20S
CLARION *      CLEAR     59  57  94 N5        30.18S
ESTHERVILLE    CLEAR     60  55  83 N9        30.21S
FORT DODGE *   CLEAR     63  57  82 N3        30.20S
MASON CITY     CLEAR     61  57  87 N7        30.19S
FOREST CITY *  CLEAR     63  55  77 N6        30.18F
IOWA FALLS *     N/A     64  59  82 N5        30.18S
$$

IAZ007>011-017>019-026>030-037>042-050>054-066-230900-
   NORTHEAST IOWA

CITY           SKY/WX    TMP DP  RH WIND       PRES   REMARKS
CEDAR RAPIDS   CLEAR     69  63  81 N7        30.11R
CHARLES CITY * CLEAR     63  59  88 N6        30.17R
DECORAH *      CLEAR     66  63  88 VRB5      30.15R
DUBUQUE        CLEAR     69  63  81 NE10      30.11S
MONTICELLO *   CLEAR     66  64  94 CALM      30.11R
OELWEIN *      CLEAR     64  63  94 N6        30.15S
WATERLOO       CLEAR     63  61  93 NW5       30.14R
$$

IAZ064-065-067-068-078-230900-
   EAST CENTRAL IOWA

CITY           SKY/WX    TMP DP  RH WIND       PRES   REMARKS
DAVENPORT      CLEAR     69  66  90 N8        30.08S
IOWA CITY      CLEAR     73  65  75 N9        30.12R
MT. PLEASANT * CLEAR     72  68  88 N8        30.09R
MUSCATINE *    CLEAR     72  66  83 N7        30.08S
QUAD CITIES    CLEAR     75  66  73 N5        30.06S
$$

IAZ062-063-075>077-085>089-095>099-230900-
   SOUTHEAST IOWA

CITY           SKY/WX    TMP DP  RH WIND       PRES   REMARKS
BURLINGTON     CLEAR     74  69  85 N10       30.06S
FAIRFIELD *    CLEAR     68  66  94 N7        30.11R
FORT MADISON * CLEAR     73  70  88 N7        30.08R
KEOKUK *       CLEAR     73  70  88 N8        30.05F
OSKALOOSA *      N/A     68  66  94 N6        30.13R
CENTERVILLE *  CLEAR     70  68  94 N7        30.14R
OTTUMWA        CLEAR     68  65  90 N7        30.12R
WASHINGTON *   CLEAR     70  68  94 N9        30.10R
$$

ABBREVIATIONS USED IN REMARKS
   TC - TEMPERATURES IN CELSIUS
  WCI - WIND CHILL INDEX
   HX - HEAT INDEX
  VSB - VISIBILITY
$$




USA.gov is the U.S. government's official web portal to all federal, state and local government web resources and services.